Murray, KY

5:51 AM CDT on October 16, 2019 (GMT -0500)
Kyle-Oakley

Weather History for KCEY - June, 2019

Change the Weather History Date:

Wednesday, June 12, 2019

  Actual Average (KPAH) Record (KPAH)
Temperature  
Mean Temperature 66 °F 75 °F  
Max Temperature 78 °F 86 °F 98 °F (1953)
Min Temperature 55 °F 64 °F 50 °F (1980)
Degree Days  
Heating Degree Days 0 0  
Month to date heating degree days 0  
Since 1 June heating degree days 0  
Since 1 July heating degree days 4128  
Cooling Degree Days 2 10  
Month to date cooling degree days 102  
Year to date cooling degree days 274  
Since 1 June cooling degree days 102  
Growing Degree Days 16 (Base 50)    
Moisture  
Dew Point 55 °F    
Average Humidity 70    
Maximum Humidity 100    
Minimum Humidity 38    
Precipitation  
Precipitation 0.00 in 0.13 in 2.75 in (1958)
Month to date precipitation 1.62  
Year to date precipitation 22.84  
Snow  
Snow 0.00 in 0.00 in 0.00 in (2002)
Month to date snowfall 0.0  
Since 1 June snowfall 0.0  
Since 1 July snowfall 9.1  
Snow Depth -    
Sea Level Pressure  
Sea Level Pressure 29.94 in    
Wind  
Wind Speed 4 mph (West)    
Max Wind Speed 15 mph    
Max Gust Speed 24 mph    
Visibility 10 miles    
Events      
T = Trace of Precipitation, MM = Missing Value Source: NWS Daily Summary

Daily Weather History Graph

Daily Weather History Graph

Search for Another Location

Airport or City:

Astronomy

Jun. 12, 2019 Rise Set
Actual Time 5:34 AM CDT 8:12 PM CDT
Civil Twilight 5:03 AM CDT 8:43 PM CDT
Nautical Twilight 4:25 AM CDT 9:21 PM CDT
Astronomical Twilight 3:43 AM CDT 10:03 PM CDT
Moon 3:27 PM CDT (6/12) 2:39 AM CDT (6/12)
Length of Visible Light 15h 39m
Length of Day
14h 38m
Waxing Gibbous, 77% of the Moon is Illuminated
Jun 12
Waxing Gibbous
Jun 17
Full
Jun 25
Last Quarter
Jul 2
New
Jul 9
First Quarter

Hourly Weather History & Observations

Time (CDT) Temp. Dew Point Humidity Pressure Visibility Wind Dir Wind Speed Gust Speed Precip Events Conditions
12:15 AM 57.2 °F 57.2 °F 100% 30.06 in 10.0 mi North 3.5 mph - N/A   Clear
12:35 AM 59.0 °F 57.2 °F 94% 30.05 in 10.0 mi North 4.6 mph - N/A   Clear
12:55 AM 59.0 °F 59.0 °F 100% 30.05 in 10.0 mi Calm Calm - N/A   Clear
1:15 AM 59.0 °F 59.0 °F 100% 30.04 in 10.0 mi North 3.5 mph - N/A   Clear
1:35 AM 59.0 °F 59.0 °F 100% 30.04 in 10.0 mi Calm Calm - N/A   Clear
1:55 AM 59.0 °F 59.0 °F 100% 30.03 in 10.0 mi Calm Calm - N/A   Clear
2:15 AM 59.0 °F 59.0 °F 100% 30.02 in 10.0 mi Calm Calm - N/A   Clear
2:35 AM 59.0 °F 59.0 °F 100% 30.01 in 10.0 mi Calm Calm - N/A   Clear
2:55 AM 59.0 °F 59.0 °F 100% 30.01 in 10.0 mi Calm Calm - N/A   Clear
3:15 AM 59.0 °F 59.0 °F 100% 30.01 in 10.0 mi Calm Calm - N/A   Clear
3:35 AM 57.2 °F 57.2 °F 100% 30.00 in 10.0 mi NE 3.5 mph - N/A   Clear
3:55 AM 57.2 °F 57.2 °F 100% 30.00 in 10.0 mi Calm Calm - N/A   Clear
4:15 AM 57.2 °F 57.2 °F 100% 30.00 in 10.0 mi Calm Calm - N/A   Clear
4:35 AM 57.2 °F 57.2 °F 100% 30.00 in 10.0 mi Calm Calm - N/A   Clear
4:55 AM 57.2 °F 57.2 °F 100% 29.99 in 10.0 mi ENE 4.6 mph - N/A   Clear
5:15 AM 55.4 °F 55.4 °F 100% 29.99 in 10.0 mi Calm Calm - N/A   Clear
5:35 AM 55.4 °F 55.4 °F 100% 29.99 in 10.0 mi Calm Calm - N/A   Clear
5:55 AM 55.4 °F 55.4 °F 100% 29.98 in 10.0 mi Calm Calm - N/A   Clear
6:15 AM 57.2 °F 57.2 °F 100% 29.98 in 10.0 mi Calm Calm - N/A   Clear
6:35 AM 57.2 °F 57.2 °F 100% 29.98 in 10.0 mi Calm Calm - N/A   Clear
6:55 AM 57.2 °F 57.2 °F 100% 29.98 in 10.0 mi Calm Calm - N/A   Clear
7:15 AM 59.0 °F 59.0 °F 100% 29.98 in 10.0 mi Calm Calm - N/A   Clear
7:35 AM 62.6 °F 59.0 °F 88% 29.98 in 10.0 mi Calm Calm - N/A   Clear
7:55 AM 64.4 °F 59.0 °F 83% 29.97 in 10.0 mi East 4.6 mph - N/A   Clear
8:15 AM 66.2 °F 57.2 °F 73% 29.97 in 10.0 mi East 4.6 mph - N/A   Clear
8:55 AM 68.0 °F 55.4 °F 64% 29.96 in 10.0 mi Calm Calm - N/A   Clear
9:15 AM 71.6 °F 55.4 °F 57% 29.95 in 10.0 mi Calm Calm - N/A   Clear
9:35 AM 73.4 °F 53.6 °F 50% 29.95 in 10.0 mi Calm Calm - N/A   Clear
9:55 AM 73.4 °F 51.8 °F 47% 29.96 in 10.0 mi West 4.6 mph - N/A   Clear
10:15 AM 73.4 °F 51.8 °F 47% 29.96 in 10.0 mi WSW 5.8 mph - N/A   Clear
10:35 AM 73.4 °F 50.0 °F 44% 29.95 in 10.0 mi WNW 6.9 mph - N/A   Clear
10:55 AM 75.2 °F 51.8 °F 44% 29.95 in 10.0 mi WSW 9.2 mph - N/A   Clear
11:15 AM 75.2 °F 50.0 °F 41% 29.95 in 10.0 mi SW 4.6 mph - N/A   Clear
11:35 AM 75.2 °F 50.0 °F 41% 29.95 in 10.0 mi West 9.2 mph - N/A   Clear
11:55 AM 75.2 °F 53.6 °F 47% 29.94 in 10.0 mi SW 5.8 mph - N/A   Clear
12:15 PM 75.2 °F 53.6 °F 47% 29.93 in 10.0 mi SSW 3.5 mph - N/A   Clear
12:35 PM 75.2 °F 53.6 °F 47% 29.93 in 10.0 mi West 9.2 mph - N/A   Clear
12:55 PM 75.2 °F 55.4 °F 50% 29.92 in 10.0 mi West 9.2 mph - N/A   Clear
1:15 PM 77.0 °F 53.6 °F 44% 29.91 in 10.0 mi WSW 10.4 mph 16.1 mph N/A   Clear
1:35 PM 77.0 °F 51.8 °F 41% 29.90 in 10.0 mi WNW 9.2 mph - N/A   Clear
1:55 PM 77.0 °F 53.6 °F 44% 29.90 in 10.0 mi WSW 3.5 mph - N/A   Clear
2:15 PM 78.8 °F 53.6 °F 42% 29.89 in 10.0 mi West 5.8 mph - N/A   Clear
2:35 PM 77.0 °F 50.0 °F 39% 29.90 in 10.0 mi West 10.4 mph - N/A   Scattered Clouds
2:55 PM 75.2 °F 51.8 °F 44% 29.91 in 10.0 mi West 11.5 mph - N/A   Scattered Clouds
3:15 PM 73.4 °F 50.0 °F 44% 29.90 in 10.0 mi WNW 15.0 mph 24.2 mph N/A   Mostly Cloudy
3:35 PM 69.8 °F 53.6 °F 56% 29.89 in 10.0 mi West 5.8 mph - N/A   Partly Cloudy
3:55 PM 73.4 °F 46.4 °F 38% 29.88 in 10.0 mi West 5.8 mph - N/A   Mostly Cloudy
4:15 PM 73.4 °F 48.2 °F 41% 29.88 in 10.0 mi West 9.2 mph - N/A   Mostly Cloudy
4:35 PM 73.4 °F 51.8 °F 47% 29.88 in 10.0 mi West 9.2 mph - N/A   Mostly Cloudy
4:55 PM 73.4 °F 53.6 °F 50% 29.88 in 10.0 mi WNW 9.2 mph - N/A   Partly Cloudy
5:15 PM 75.2 °F 53.6 °F 47% 29.87 in 10.0 mi WNW 12.7 mph 17.3 mph N/A   Clear
5:35 PM 73.4 °F 53.6 °F 50% 29.87 in 10.0 mi WNW 12.7 mph 16.1 mph N/A   Clear
5:55 PM 73.4 °F 53.6 °F 50% 29.87 in 10.0 mi WNW 8.1 mph - N/A   Clear
6:15 PM 73.4 °F 53.6 °F 50% 29.87 in 10.0 mi WNW 8.1 mph - N/A   Scattered Clouds
6:35 PM 71.6 °F 53.6 °F 53% 29.88 in 10.0 mi WNW 12.7 mph 18.4 mph N/A   Partly Cloudy
6:55 PM 69.8 °F 53.6 °F 56% 29.88 in 10.0 mi West 6.9 mph - N/A   Mostly Cloudy
7:15 PM 69.8 °F 53.6 °F 56% 29.88 in 10.0 mi West 10.4 mph 18.4 mph N/A   Overcast
7:35 PM 68.0 °F 51.8 °F 56% 29.89 in 10.0 mi WNW 6.9 mph - N/A   Overcast
7:55 PM 68.0 °F 53.6 °F 60% 29.88 in 10.0 mi West 5.8 mph - N/A   Overcast
8:15 PM 66.2 °F 53.6 °F 64% 29.89 in 10.0 mi West 5.8 mph - N/A   Overcast
8:35 PM 66.2 °F 55.4 °F 68% 29.89 in 10.0 mi West 3.5 mph - N/A   Overcast
8:55 PM 66.2 °F 53.6 °F 64% 29.89 in 10.0 mi West 8.1 mph - N/A   Overcast
9:15 PM 66.2 °F 53.6 °F 64% 29.90 in 10.0 mi WSW 5.8 mph - N/A   Overcast
9:35 PM 66.2 °F 53.6 °F 64% 29.90 in 10.0 mi West 9.2 mph - N/A   Overcast
9:55 PM 64.4 °F 53.6 °F 68% 29.91 in 10.0 mi West 9.2 mph - N/A   Scattered Clouds
10:15 PM 62.6 °F 55.4 °F 77% 29.91 in 10.0 mi West 6.9 mph - N/A   Clear
10:35 PM 62.6 °F 55.4 °F 77% 29.91 in 10.0 mi WSW 5.8 mph - N/A   Clear
10:55 PM 62.6 °F 57.2 °F 82% 29.91 in 10.0 mi West 6.9 mph - N/A   Clear
11:15 PM 60.8 °F 57.2 °F 88% 29.91 in 10.0 mi WSW 5.8 mph - N/A   Clear
11:35 PM 60.8 °F 59.0 °F 94% 29.91 in 10.0 mi SW 5.8 mph - N/A   Clear
11:55 PM 59.0 °F 59.0 °F 100% 29.91 in 10.0 mi SW 6.9 mph - N/A   Clear